Regional Weather Roundup
Issued by NWS

Home | Current Version | Previous Version | Graphics & Text | Print | Product List | Glossary On
Versions: 1 2 3 4 5 6 7 8 9 10 11 12 13 14 15 16 17 18 19 20 21 22 23 24 25 26 27 28 29 30 31 32 33 34 35 36 37 38 39 40 41 42 43 44 45 46 47 48 49 50
000
ASUS43 KOAX 271010
RWRNE

WEATHER ROUNDUP FOR NEBRASKA
NATIONAL WEATHER SERVICE OMAHA NE
500 AM CDT WED JUL 27 2016

NOTES: SATELLITE DATA IS BEING USED TO AUGMENT CLOUD COVER ABOVE
       12000 FEET.
       "FAIR" INDICATES FEW OR NO CLOUDS BELOW 12,000 FEET WITH NO
       SIGNIFICANT WEATHER AND/OR OBSTRUCTIONS TO VISIBILITY.

  * THESE STATIONS DO NOT REPORT WEATHER SUCH AS RAIN...SNOW OR FOG.

NEZ001>004-019>022-054>056-271100-
NEBRASKA PANHANDLE

CITY           SKY/WX    TMP DP  RH WIND       PRES   REMARKS
SCOTTSBLUFF    PTCLDY    66  58  75 SE10      30.12R
ALLIANCE       LGT RAIN  65  59  81 SE18G30   30.10F
CHADRON        LGT RAIN  64  60  87 SE20      30.04F FOG
KIMBALL        CLOUDY    64  56  74 E10       30.16R
SIDNEY         PTCLDY    62  57  83 E10       30.16R
$$

NEZ057>060-069>072-079>082-271100-
SOUTHWEST NEBRASKA

CITY           SKY/WX    TMP DP  RH WIND       PRES   REMARKS
NORTH PLATTE   PTCLDY    61  59  93 SE7       30.07S
IMPERIAL       CLOUDY    62  57  83 E9G18     30.11R
LEXINGTON      CLOUDY    62  60  94 CALM      30.04F
MCCOOK         CLOUDY    63  59  87 SE3       30.09R
OGALLALA       CLOUDY    64  58  81 CALM      30.15R
$$

NEZ005>010-023>029-035>040-094-271100-
NORTH CENTRAL NEBRASKA

CITY           SKY/WX    TMP DP  RH WIND       PRES   REMARKS
VALENTINE      CLEAR     61  58  90 MISG      30.06S
AINSWORTH      CLOUDY    60  59  94 W5        30.04S
BROKEN BOW     CLEAR     58  58 100 CALM      30.01F
O`NEILL        PTCLDY    64  61  89 SW9       29.93F
ORD            PTCLDY    61  58  90 W8        29.96F
THEDFORD       CLEAR     62  59  91 SW3       30.06S
$$

NEZ041-046>049-061>064-073>077-083>087-271100-
SOUTH CENTRAL NEBRASKA

CITY           SKY/WX    TMP DP  RH WIND       PRES   REMARKS
GRAND ISLAND   CLOUDY    72  57  59 S10       29.93F
AURORA         MOCLDY    71  58  63 SW10      29.91F
HASTINGS       CLOUDY    66  60  81 W8        29.97F
HEBRON         CLOUDY    68  65  89 S6        30.01F
HOLDREGE       CLOUDY    63  60  89 S3        30.01F
KEARNEY *      PTCLDY    64   7  10 NW9       30.01S
YORK           MOCLDY    70  59  68 S6        29.89F
$$

NEZ011>018-030>034-042>045-271100-
NORTHEAST NEBRASKA

CITY           SKY/WX    TMP DP  RH WIND       PRES   REMARKS
NORFOLK        CLOUDY    68  65  90 CALM      29.88F
ALBION         CLOUDY    64  62  93 NW7       29.92F
BLAIR          CLOUDY    69  66  92 S3        29.97F
FREMONT        CLOUDY    72  64  78 SE10      29.91F
TEKAMAH        CLOUDY    69  66  90 SE8       29.95F
WAYNE          MOCLDY    70  66  89 E7        29.90F
$$

NEZ050>053-065>068-078-088>093-271100-
SOUTHEAST NEBRASKA

CITY           SKY/WX    TMP DP  RH WIND       PRES   REMARKS
LINCOLN        CLOUDY    71  67  87 S12       29.94F
OMAHA EPPLEY   CLOUDY    72  66  81 SE9       29.96F
BEATRICE       CLOUDY    68  66  92 SW3       30.00F
FALLS CITY     PTCLDY    67  66  97 NW3       30.02R
NEBRASKA CITY  CLOUDY    67  67 100 SW5       30.01F
PLATTSMOUTH    MOCLDY    69  67  93 S5        29.99F
$$

NEZ044-045-051>053-067-271100-
OMAHA AREA

CITY           SKY/WX    TMP DP  RH WIND       PRES   REMARKS
OMAHA EPPLEY   CLOUDY    72  66  81 SE9       29.96F
BLAIR          CLOUDY    69  66  92 S3        29.97F
FREMONT        CLOUDY    72  64  78 SE10      29.91F
MILLARD        CLOUDY    70  67  90 SE5       29.96F
OFFUTT AFB     CLOUDY    69  69 100 SE7       29.97F
PLATTSMOUTH    MOCLDY    69  67  93 S5        29.99F
WAHOO          FAIR      69  66  89 SE12      29.90F
$$



USA.gov is the U.S. government's official web portal to all federal, state and local government web resources and services.